Showing default

QIANFAN-58, 62788

Orbit data source: Space-Track

QIANFAN-58, 62788 is a Chinese payload satellite in LEO that was launched on Thu, 23 Jan 2025 UTC via a CHANG ZHENG 6A launch vehicle from the Taiyaun Space Center, China (TSC). Payload-class satellites include a variety of spacecraft equipped with specific instruments for various scientific and technological missions. These include communications satellites like Starlink; space stations such as the ISS; scientific satellites like the Hubble; Earth observation satellites from companies like Planet Labs, Umbra, and HawkEye 360; GPS; miniature CubeSats for education and research; and military/defense satellites.

Loading next visibility...
Identifier
62788, 2025-016D
Orbit
LEO
Country
Flag of CNCN / PRC
Related business
Manufacturer
SECM
Mission
Operational Commercial Communications
Bus & Motor
QIANFAN, Unknown motor
Mass
267 kg wet, ~267 kg dry
Launch date (UTC)
2025-01-23 (1 year ago)
Launch vehicle
CHANG ZHENG 6A
Launch site
Taiyaun Space Center, China (TSC)
Object type
Payload
Rocket body
Debris
Shape & HBR
Box + 1 Pan, 1.3 m
Radar Cross Section
13.200 m², Large (>1 m²)

Expand to show TLE details & history
Last TLE update: 8 hours ago

TLE from 8 hours ago
0 QIANFAN-58
1 62788U 25016D   26127.62743898  .00000095  00000-0  12898-3 0  9995
2 62788  88.9691  87.8631 0011713 285.8656  74.1204 13.51009293 66946
Epoch: 2026-05-07T15:03Z
TLE epoch observation values (Epoch: 2026-05-07T15:03:30.727Z)
Latitude
-0.00003°
Longitude
-3.48579°
Altitude
1,069.123 km
Speed
7.319 km/s
True Right ascension
05h 51m 27s
True Declination
0° 00' 00"
Sunlit
Object was in daylight at epoch
Visualization orbit readout
Latitude
Unknown
Longitude
Unknown
Altitude
Unknown
Speed
Unknown
Apparent Right ascension
Unknown
Apparent Declination
Unknown
Sunlit
N/A
Visualization observer readout
Local Sidereal Time
06:43:01
Azimuth
Unknown
Elevation
Unknown
Doppler factor
Unknown
Orbital elements
Apogee altitude
1,074.317 km
Perigee altitude
1,056.88 km
Semi-major axis
7,443.736 km
Eccentricity
0.00117
Inclination
88.9691°
RAAN
87.8631°
Arg. of periapsis
285.8656°
True anomaly
74.24955°
Mean anomaly
74.1204°
Eccentric anomaly
74.18497°
Mean motion
3.37953 °/min
Orbital period
106.52 mins
BSTAR
0.00012898
Loading maneuver chart data...
Computing Atmospheric mass density...
Loading historical data...
Loading historical data...
Loading historical data...
Loading historical data...
Loading historical data...
Loading historical data...
Loading historical data...

Documentation

Showing up to 5 results
|